[[{"header":{"parameterUnit":"m.s-1","parameterCategory":1,"la1":30.2991,"la2":30.254,"lo1":-89.0895,"lo2":-89.0444,"dy":0.0017,"dx":0.0017,"nx":28,"ny":28,"refTime":"2025-07-05T03:00:00:Z","depth":0,"parameterNumber":2,"parameterNumberName":"U-component_of_WINDS"},"data":[0,0,0,0,0,0,0,0,0,0,0,0,0,0,0,0,0,0,0,0,0,0,0,0,0,0,0,0,0,0,0,0,0,0,0,0,0,0,0,0,0,0,0,0,0,0,0,0,0,0,0,0,0,0,0,0,0,0,-0.1771,-0.177,0,-0.1682,-0.1681,-0.168,-0.1721,-0.1723,-0.1725,-0.1727,-0.1622,-0.1617,-0.1612,0,0,0,0,0,0,0,0,0,0,0,0,0,-0.1964,-0.1961,-0.1771,-0.177,-0.1769,-0.1683,-0.1681,-0.168,-0.172,-0.1723,-0.1726,-0.1728,-0.1623,-0.1617,-0.1611,0,0,0,0,0,0,0,0,0,0,0,0,0,-0.1878,-0.1959,-0.1772,-0.1779,-0.1779,-0.1683,-0.1681,-0.168,-0.172,-0.1723,-0.1726,-0.173,-0.1625,-0.1618,-0.1611,-0.1497,0,0,-0.1588,-0.1585,0,0,0,0,0,0,0,0,-0.1883,-0.1871,-0.1779,-0.1779,-0.1778,-0.1717,-0.1711,-0.1618,-0.1719,-0.1742,-0.1727,-0.1731,-0.1649,-0.164,-0.1616,-0.1492,-0.1488,-0.1587,-0.1583,-0.158,-0.1578,0,0,0,0,0,0,0,-0.1889,-0.1875,-0.1736,-0.1778,-0.1777,-0.1783,-0.1775,-0.1693,-0.1677,-0.174,-0.1743,-0.1732,-0.165,-0.1623,-0.1613,-0.1486,-0.1588,-0.1581,-0.1577,-0.1574,-0.1267,-0.1263,0,0,0,0,0,0,-0.1896,-0.188,-0.1739,-0.1733,-0.184,-0.1777,-0.1767,-0.1732,-0.1678,-0.1674,-0.173,-0.1735,-0.1634,-0.1622,-0.161,-0.1476,-0.158,-0.1573,-0.1569,-0.1271,-0.1266,-0.1262,0,0,0,0,0,0,-0.19,-0.1884,-0.1742,-0.1807,-0.179,-0.177,-0.173,-0.1729,-0.1702,-0.1671,-0.1667,-0.1706,-0.1636,-0.162,-0.1527,-0.1472,-0.157,-0.1563,-0.1275,-0.1269,-0.1264,-0.1205,0,0,0,0,0,0,-0.1906,-0.1885,-0.1844,-0.1806,-0.1786,-0.1664,-0.1727,-0.1725,-0.1691,-0.1697,-0.1647,-0.1642,-0.1637,-0.1537,-0.1519,-0.1464,-0.1557,-0.128,-0.1272,-0.1266,-0.1211,-0.1198,-0.1186,0,0,0,0,0,-0.1913,-0.1828,-0.1842,-0.1825,-0.1736,-0.1661,-0.1649,-0.1649,-0.1687,-0.1644,-0.1624,-0.1644,-0.1481,-0.1527,-0.1507,-0.1449,-0.1283,-0.1274,-0.1266,-0.1217,-0.1201,-0.1187,0,0,0,0,0,0,-0.1855,-0.1823,-0.1838,-0.174,-0.1703,-0.1668,-0.1615,-0.1631,-0.158,-0.1587,-0.1585,-0.1573,-0.1477,-0.1453,-0.1505,-0.1337,-0.1387,-0.1374,-0.1357,-0.1341,-0.1328,-0.1336,-0.1551,0,0,0,0,0,-0.1832,-0.1777,-0.175,-0.1665,-0.1647,-0.1634,-0.1601,-0.1605,-0.1565,-0.1549,-0.1521,-0.1478,-0.1418,-0.1378,-0.132,-0.1208,-0.1197,-0.1158,-0.1145,-0.1135,-0.1124,-0.1064,-0.1046,-0.1234,-0.1235,-0.1235,0,0,-0.1781,-0.1757,-0.1721,-0.1653,-0.1626,-0.1567,-0.162,-0.1555,-0.151,-0.1537,-0.1449,-0.1427,-0.1379,-0.1276,-0.1229,-0.1253,-0.107,-0.1124,-0.1116,-0.1111,-0.1053,-0.1036,-0.102,-0.1229,-0.123,-0.1231,0,0,-0.1659,-0.1636,-0.1564,-0.1536,-0.1496,-0.1488,-0.147,-0.1433,-0.1421,-0.1334,-0.1354,-0.1297,-0.1193,-0.1159,-0.1127,-0.0994,-0.101,-0.0975,-0.0909,-0.085,-0.0836,-0.0822,-0.0776,-0.0759,-0.0964,-0.0964,-0.0963,0,-0.1601,-0.1517,-0.1523,-0.1458,-0.1427,-0.1454,-0.1379,-0.135,-0.129,-0.1266,-0.1295,-0.1167,-0.1136,-0.1026,-0.0995,-0.0968,-0.0946,-0.0981,-0.0838,-0.0825,-0.0812,-0.0768,-0.075,-0.096,-0.096,-0.0961,-0.0961,0,-0.1447,-0.1388,-0.1334,-0.1282,-0.1244,-0.1174,-0.1167,-0.1127,-0.1134,-0.1122,-0.1032,-0.0996,-0.0933,-0.0907,-0.091,-0.0797,-0.0814,-0.084,-0.0891,-0.0791,-0.0749,-0.0732,-0.0954,-0.0956,-0.0957,-0.0958,0,0,-0.1287,-0.1242,-0.1222,-0.1199,-0.1157,-0.1109,-0.1039,-0.0982,-0.0948,-0.0905,-0.0846,-0.0758,-0.0783,-0.0748,-0.0747,-0.0696,-0.0594,-0.0728,-0.0727,-0.0706,-0.0468,-0.045,-0.043,-0.0605,-0.0601,-0.0599,-0.0473,0,-0.1164,-0.1047,-0.1052,-0.0941,-0.0886,-0.0911,-0.085,-0.0815,-0.0802,-0.075,-0.0733,-0.0672,-0.0709,-0.0688,-0.0639,-0.0618,-0.0547,-0.0626,-0.0546,-0.0544,-0.056,-0.0408,-0.0388,-0.0271,-0.0456,-0.0453,-0.0451,0,-0.1005,-0.0964,-0.0849,-0.0817,-0.0794,-0.0739,-0.0688,-0.0639,-0.0599,-0.0593,-0.0555,-0.0563,-0.0489,-0.0542,-0.0438,-0.0493,-0.046,-0.0444,-0.0439,-0.0432,-0.0492,-0.0398,-0.0233,-0.0216,-0.0425,-0.0427,-0.0429,0,-0.0902,-0.0816,-0.0738,-0.0717,-0.0676,-0.0638,-0.0618,-0.0582,-0.0548,-0.0501,-0.0479,-0.0422,-0.0391,-0.0345,-0.0336,-0.0375,-0.0232,-0.0284,-0.0223,-0.0224,-0.0192,-0.0195,-0.0022,-0.017,-0.017,-0.017,-0.0171,0,-0.0766,-0.0695,-0.0692,-0.0643,-0.0564,-0.0567,-0.0487,-0.047,-0.0438,-0.0385,-0.04,-0.0348,-0.034,-0.0285,-0.0277,-0.0193,-0.0178,-0.0169,-0.0168,-0.0168,-0.017,-0.0147,-0.0155,-0.0166,-0.0167,-0.0167,-0.0168,0,-0.0638,-0.0633,-0.0549,-0.0519,-0.0509,-0.0452,-0.0424,-0.0376,-0.0365,-0.0297,-0.0281,-0.0261,-0.0198,-0.0186,-0.0108,-0.0103,-0.0003,-0.0009,-0.0018,-0.0019,0.004,0.0034,0.0234,0.0259,0.0095,0.0097,0.0098,0,-0.0552,-0.0499,-0.0464,-0.0432,-0.0412,-0.0358,-0.0325,-0.0325,-0.0289,-0.0241,-0.0198,-0.0137,-0.0089,0.0015,0.0038,0.0097,0.0092,0.0158,0.0101,0.0098,0.0092,0.0088,0.0093,0.0169,0.017,0.0172,0.0173,0,-0.0401,-0.0401,-0.0355,-0.0308,-0.0269,-0.023,-0.0193,-0.0164,-0.0159,-0.0117,-0.0056,-0.0018,0.0058,0.0119,0.0177,0.0202,0.019,0.019,0.0207,0.0207,0.0199,0.0203,0.001,0.0186,0.0185,0.0184,0.0183,0.0182,-0.0292,-0.0247,-0.0216,-0.0164,-0.0137,-0.0103,-0.0058,-0.0042,0.0008,0.0066,0.0065,0.0133,0.0173,0.0248,0.0277,0.0333,0.0312,0.0338,0.0344,0.035,0.0354,0.019,0.0344,0.0344,0.0343,0.0343,0.0343,0,-0.0143,-0.0125,-0.0077,-0.0028,0.0014,-0.0006,0.0033,0.0071,0.0129,0.0165,0.0211,0.0283,0.0342,0.037,0.0429,0.0468,0.0464,0.0484,0.0481,0.0487,0.037,0.0348,0.0486,0.0486,0.0486,0.0486,0.0486,0.0486,-0.0061,0.0014,0.0017,0.0107,0.0125,0.0188,0.0212,0.0245,0.0273,0.0352,0.0399,0.0415,0.0448,0.0509,0.0564,0.0571,0.0593,0.0616,0.062,0.051,0.0495,0.0481,0.0461,0.0621,0.0621,0.0732,0.0733,0.0734]},{"header":{"parameterUnit":"m.s-1","parameterCategory":1,"la1":30.2991,"la2":30.254,"lo1":-89.0895,"lo2":-89.0444,"dy":0.0017,"dx":0.0017,"nx":28,"ny":28,"refTime":"2025-07-05T03:00:00:Z","depth":0,"parameterNumber":3,"parameterNumberName":"V-component_of_WINDS"},"data":[0,0,0,0,0,0,0,0,0,0,0,0,0,0,0,0,0,0,0,0,0,0,0,0,0,0,0,0,0,0,0,0,0,0,0,0,0,0,0,0,0,0,0,0,0,0,0,0,0,0,0,0,0,0,0,0,0,0,0.1733,0.173,0,0.1369,0.1365,0.136,0.1105,0.1103,0.1101,0.1099,0.0719,0.0711,0.0703,0,0,0,0,0,0,0,0,0,0,0,0,0,0.2207,0.2199,0.1734,0.1729,0.1725,0.1369,0.1364,0.1359,0.1105,0.1103,0.11,0.1098,0.0722,0.0712,0.0702,0,0,0,0,0,0,0,0,0,0,0,0,0,0.1938,0.2197,0.1735,0.1555,0.1535,0.137,0.1364,0.1358,0.1106,0.1103,0.11,0.1097,0.0725,0.0713,0.0701,0.0683,0,0,0.0663,0.0657,0,0,0,0,0,0,0,0,0.1953,0.192,0.1586,0.1567,0.1545,0.1279,0.1391,0.1131,0.1106,0.1269,0.1099,0.1095,0.0907,0.088,0.0817,0.0665,0.0649,0.0661,0.0654,0.0649,0.0645,0,0,0,0,0,0,0,0.1972,0.1935,0.1589,0.1582,0.1556,0.1492,0.145,0.1341,0.1109,0.1254,0.1235,0.1195,0.0895,0.083,0.0807,0.0643,0.0662,0.0651,0.0643,0.0638,0.0458,0.0461,0,0,0,0,0,0,0.202,0.1952,0.16,0.1578,0.1746,0.1486,0.1439,0.1367,0.1109,0.1067,0.1198,0.1185,0.0853,0.0821,0.0792,0.0753,0.0649,0.0637,0.063,0.0456,0.0459,0.0462,0,0,0,0,0,0,0.2031,0.1991,0.1615,0.176,0.1707,0.1481,0.1402,0.1362,0.1296,0.1067,0.1024,0.1174,0.0849,0.081,0.0712,0.0737,0.0631,0.062,0.0453,0.0457,0.046,0.0677,0,0,0,0,0,0,0.2045,0.1996,0.1988,0.1761,0.17,0.1543,0.1404,0.1357,0.1276,0.1255,0.1033,0.0994,0.0844,0.0733,0.07,0.0718,0.061,0.0449,0.0454,0.0459,0.0667,0.0688,0.0706,0,0,0,0,0,0.2063,0.2061,0.1988,0.1947,0.1685,0.1545,0.151,0.1339,0.1279,0.1268,0.1122,0.1001,0.0741,0.0725,0.0686,0.07,0.0447,0.0453,0.0459,0.0658,0.0684,0.0706,0,0,0,0,0,0,0.2292,0.2028,0.1944,0.187,0.1733,0.1502,0.1482,0.1372,0.1247,0.1232,0.1025,0.0977,0.0901,0.0791,0.0778,0.067,0.0579,0.0578,0.0744,0.0766,0.0786,0.0812,0.06,0,0,0,0,0,0.2336,0.2246,0.2019,0.1975,0.1911,0.171,0.1642,0.1524,0.1372,0.1311,0.1157,0.1013,0.0899,0.0827,0.0709,0.0652,0.0599,0.0643,0.0663,0.068,0.068,0.0641,0.0657,0.0482,0.0482,0.0482,0,0,0.242,0.2265,0.222,0.2017,0.1896,0.1807,0.1662,0.1572,0.1503,0.1296,0.1195,0.1079,0.0904,0.0827,0.0785,0.0733,0.0718,0.0688,0.0704,0.0693,0.0649,0.0666,0.0681,0.0486,0.0485,0.0484,0,0,0.2529,0.2405,0.2354,0.2238,0.2058,0.1926,0.1915,0.1702,0.1617,0.1514,0.1357,0.1272,0.108,0.0962,0.0877,0.0949,0.0832,0.0916,0.1017,0.0982,0.0996,0.1007,0.103,0.1041,0.0918,0.0918,0.0919,0,0.2656,0.2516,0.2341,0.2261,0.2176,0.1991,0.1938,0.1833,0.1624,0.1569,0.1515,0.1272,0.1141,0.1033,0.1052,0.099,0.0969,0.0937,0.1009,0.1018,0.1026,0.1045,0.1055,0.0929,0.0928,0.0927,0.0926,0,0.2681,0.2587,0.2568,0.2374,0.2288,0.2222,0.2036,0.197,0.1861,0.1735,0.1632,0.147,0.1316,0.1283,0.1174,0.1161,0.1134,0.1049,0.0951,0.1057,0.1072,0.1078,0.0945,0.0941,0.0938,0.0935,0,0,0.2916,0.2632,0.2627,0.2538,0.233,0.2252,0.218,0.2033,0.1979,0.1844,0.1775,0.162,0.154,0.1444,0.1322,0.1292,0.1357,0.1208,0.1201,0.1239,0.133,0.1394,0.1405,0.1282,0.1282,0.1283,0.1344,0,0.299,0.285,0.2693,0.2607,0.2517,0.2343,0.228,0.2145,0.2027,0.1932,0.18,0.1693,0.1596,0.1537,0.15,0.1357,0.1372,0.1351,0.1213,0.121,0.1258,0.1413,0.1479,0.1544,0.1349,0.135,0.135,0,0.3055,0.2932,0.2839,0.2641,0.2598,0.2543,0.2397,0.2311,0.2155,0.2071,0.1968,0.1838,0.1752,0.1672,0.1549,0.1538,0.1473,0.1396,0.1394,0.137,0.1283,0.139,0.156,0.1569,0.1358,0.1358,0.1357,0,0.3233,0.3044,0.2963,0.2893,0.2661,0.2627,0.2529,0.2371,0.2294,0.2166,0.2114,0.1978,0.1903,0.18,0.1638,0.1594,0.1532,0.1438,0.1457,0.1461,0.1446,0.1449,0.1605,0.1414,0.1414,0.1413,0.1413,0,0.3329,0.3278,0.304,0.299,0.2928,0.275,0.2692,0.2578,0.2441,0.2364,0.2207,0.2138,0.193,0.1837,0.171,0.1627,0.1595,0.1523,0.1488,0.1534,0.1543,0.1484,0.1474,0.1416,0.1415,0.1415,0.1414,0,0.3514,0.3353,0.3253,0.3046,0.2992,0.2956,0.2776,0.272,0.2596,0.2502,0.247,0.2273,0.2156,0.1986,0.1816,0.173,0.1666,0.1613,0.1719,0.1698,0.1726,0.1724,0.1846,0.1852,0.1663,0.1665,0.1667,0,0.3583,0.354,0.3329,0.3269,0.3177,0.3081,0.3003,0.2827,0.2752,0.2575,0.2541,0.2413,0.2299,0.2121,0.1961,0.1831,0.1772,0.1824,0.175,0.1798,0.1768,0.1771,0.1765,0.1839,0.1842,0.1845,0.1847,0,0.3722,0.3646,0.354,0.3409,0.3321,0.3208,0.3087,0.3046,0.2844,0.2768,0.2648,0.2562,0.2392,0.2265,0.2115,0.2011,0.1895,0.1873,0.1869,0.1913,0.1975,0.1939,0.1762,0.1869,0.1866,0.1865,0.1864,0.1863,0.3847,0.3801,0.3647,0.3536,0.3428,0.332,0.3259,0.3129,0.3027,0.2876,0.2779,0.2665,0.2512,0.2299,0.2203,0.2109,0.206,0.2057,0.2055,0.2056,0.2071,0.1995,0.2081,0.2081,0.208,0.2079,0.2078,0,0.3975,0.3869,0.3769,0.3608,0.3521,0.3425,0.3288,0.322,0.3122,0.2992,0.2887,0.275,0.2629,0.2463,0.2329,0.2286,0.223,0.2257,0.2255,0.2233,0.2123,0.2138,0.2305,0.2305,0.2305,0.2305,0.2305,0.2305,0.4031,0.3949,0.3856,0.372,0.3613,0.3502,0.3432,0.3331,0.3226,0.3082,0.2982,0.2877,0.2732,0.2587,0.2471,0.2425,0.2382,0.2425,0.2363,0.2262,0.2241,0.2221,0.2234,0.2418,0.2418,0.248,0.248,0.2481]}]]